Volver al catálogo

STARLINK-5553

ActivoComunicacionesSSO
NORAD 56333·PAYLOAD·🇺🇸 United States

Lanzado Apr 27, 2023 desde Vandenberg Space Force Base

Loading…

Próximos Pases (próximas 24 horas)

TLE

ActualizadoSource: CelesTrak SupGP

Época: Sep 14, 2026, 22:19 UTC

1 56333C 23058S   26257.93034722  .00055037  00000+0  17099-2 0  2574
2 56333  97.2847 254.7919 0001706  83.9153 269.8249 15.33384715    10

Sigue STARLINK-5553 en tiempo real con AllMySat

Download on the App Store